Wind_Speed
2 1 2 3 3 2 4 3 2 4 5 4 6 6 5 6 6 8 8 9 10 10 9 8 8 8 7 7 7 7 7 7 7 8 8 7 6 6 6 7 7 8 8 8
4 4 3 4 3 2 3 3 4 5 4 4 5 6 6 6 7 8 8 9 9 9 9 8 8 8 8 8 8 8 8 8 8 9 9 9 8 7 7 8 8 8 8 8
7 5 6 6 5 4 5 5 5 6 6 5 6 6 8 8 8 9 10 9 9 9 9 9 8 8 9 9 8 8 8 8 9 10 10 10 10 9 8 9 9 9 9 10
7 7 7 7 7 6 7 7 6 6 5 5 6 7 9 9 8 9 10 10 9 10 10 11 10 9 10 10 9 9 9 10 10 11 11 12 12 11 10 10 10 10 11 11
7 8 8 9 9 8 7 6 4 5 5 6 6 8 10 9 10 9 10 11 10 11 11 11 11 11 10 10 10 10 11 11 11 12 12 13 13 12 12 12 12 12 12 12
9 9 9 8 7 7 6 4 4 5 6 9 8 9 12 11 11 13 13 12 12 12 12 12 12 12 11 11 11 11 12 12 12 12 13 14 14 14 14 14 14 14 14 14
7 7 8 8 6 7 6 5 6 8 9 10 9 10 12 12 12 13 14 13 13 13 14 13 12 12 12 12 12 12 13 13 13 14 14 15 15 15 15 16 16 15 15 15
8 9 9 9 8 9 8 6 7 9 9 10 10 12 11 13 14 14 15 16 15 16 15 14 14 13 13 13 13 13 14 14 15 15 15 16 17 17 17 18 17 17 17 17
10 10 12 10 9 10 9 7 8 10 10 11 11 14 15 15 15 16 17 17 16 16 16 16 15 15 15 15 15 15 15 16 16 17 16 17 18 18 18 18 18 19 19 19
13 11 10 10 10 10 10 8 8 10 11 10 11 14 17 16 17 18 18 17 17 17 17 17 16 16 16 17 17 17 17 18 18 18 18 18 19 20 19 20 20 21 22 21
14 13 12 12 12 9 11 10 11 12 12 12 13 16 18 19 18 18 20 19 19 19 18 17 17 17 18 18 19 19 20 19 19 19 19 20 20 21 20 21 22 23 23 22
17 15 15 14 15 13 13 14 14 13 13 14 14 17 19 19 20 19 20 22 21 19 19 19 20 20 20 20 21 21 21 21 21 21 21 22 22 22 23 23 23 24 24 24
18 17 15 13 15 15 15 14 14 14 13 14 16 19 19 20 21 21 21 22 21 20 21 21 21 21 21 21 22 22 22 23 23 23 22 23 23 24 24 25 24 25 26 26
20 19 18 17 15 14 16 15 15 16 15 16 19 21 20 22 24 23 22 22 23 22 22 23 22 22 22 22 23 24 24 24 24 24 24 24 25 26 26 26 27 27 27 28
22 22 21 21 20 18 17 16 15 17 17 18 19 21 22 22 24 25 24 24 25 24 24 24 24 24 24 24 25 25 26 26 26 26 26 26 27 27 27 27 27 28 29 29
24 24 24 23 22 20 20 19 19 19 19 20 20 23 23 25 25 26 25 26 26 26 25 25 25 26 26 26 27 27 27 27 27 27 27 28 28 28 28 28 29 30 30 30
24 24 24 23 21 21 22 22 22 23 22 22 24 25 25 26 25 26 27 26 26 26 26 26 26 27 27 27 27 28 28 28 28 28 28 29 29 30 30 30 30 30 30 30
24 24 24 24 23 24 24 22 23 24 25 25 26 27 27 26 27 28 29 29 29 28 28 28 29 29 29 28 28 29 30 29 29 29 29 30 31 31 31 31 31 31 32 32
26 25 25 25 25 25 25 24 24 24 25 26 27 28 27 26 27 29 30 29 29 29 29 30 29 30 29 29 29 30 30 30 30 30 30 30 31 31 31 31 32 32 32 31
26 26 27 27 25 25 26 25 26 25 28 27 27 28 27 27 28 29 30 30 30 30 31 30 30 29 29 29 30 30 30 30 30 31 31 30 31 31 30 30 30 31 31 31
26 26 26 26 27 27 27 27 25 25 28 28 28 28 27 28 29 30 30 31 31 31 31 30 30 30 30 30 31 30 30 31 31 31 30 30 30 29 29 30 30 30 31 31
27 26 26 26 27 28 27 26 27 28 28 29 29 29 29 30 30 31 32 32 31 30 29 30 30 30 31 31 31 30 30 31 31 31 30 29 29 30 30 30 30 30 31 32
27 26 26 27 27 28 27 28 28 28 28 29 29 30 31 31 31 31 32 31 30 28 28 29 30 30 31 31 31 31 31 31 31 30 29 29 30 30 29 30 30 31 32 33
28 27 27 28 29 29 28 28 28 28 29 29 30 31 32 31 31 30 31 31 31 30 29 29 30 31 30 30 31 31 31 31 31 30 30 30 30 30 30 31 31 32 33 33
28 29 28 28 28 29 29 29 29 29 30 30 31 30 30 30 30 30 30 30 30 30 29 30 30 30 30 31 31 31 31 31 30 30 31 31 31 31 31 31 32 32 32 32
29 29 29 29 28 29 30 31 31 30 30 30 30 29 29 30 30 30 30 30 30 30 30 30 30 30 30 30 30 30 30 30 30 30 30 31 31 31 32 32 32 32 31 31
Wind_Direction
238 215 236 245 257 239 231 257 273 317 326 338 332 339 340 338 350 355 351 349 354 353 354 353 352 351 350 350 349 345 344 341 341 340 340 337 331 328 331 333 334 332 332 330
240 245 254 262 256 256 266 294 300 301 316 332 335 344 334 324 337 345 346 348 349 346 349 350 345 345 346 346 346 342 339 338 333 333 338 338 329 324 326 327 326 328 327 323
238 233 240 251 261 265 272 271 274 282 300 310 320 331 321 324 331 332 333 339 341 339 336 333 331 335 337 337 335 337 334 332 330 330 336 337 330 319 318 319 319 320 320 314
250 247 243 250 251 245 260 260 267 278 281 281 290 297 309 316 330 330 328 331 334 333 332 329 326 324 327 328 328 329 327 327 325 323 325 328 329 324 317 314 312 309 310 311
245 250 254 251 242 245 251 256 267 277 280 273 278 292 297 298 311 318 321 323 327 325 323 324 322 320 322 324 323 320 321 322 320 319 318 319 320 317 314 312 310 308 306 307
239 248 251 253 247 252 252 262 285 290 277 272 273 279 282 294 310 317 317 320 319 318 318 317 318 318 318 319 320 320 319 318 316 315 314 313 312 311 308 306 305 306 306 305
250 255 259 261 253 249 244 259 276 282 280 287 284 268 272 292 303 304 307 314 317 318 316 314 316 319 317 314 315 316 314 314 313 310 308 307 307 307 305 304 302 301 302 301
244 259 259 262 256 246 238 239 263 270 277 285 289 277 273 288 293 294 301 306 311 313 312 312 312 314 315 314 312 314 312 310 310 308 305 304 305 303 301 301 302 301 300 299
227 236 253 257 253 254 247 236 251 275 273 278 277 282 286 285 288 295 296 300 305 307 307 309 308 309 308 308 308 309 311 306 306 305 303 302 301 301 301 301 302 303 301 298
234 239 248 260 259 256 258 250 255 264 266 270 273 278 276 276 281 290 295 297 300 302 303 305 305 305 304 304 304 305 304 305 305 304 301 299 299 299 300 301 300 302 301 297
235 246 246 255 256 255 263 261 255 260 253 258 267 271 276 280 278 285 291 295 295 298 300 300 300 302 302 301 301 302 302 302 301 300 300 299 298 297 299 299 299 300 299 298
236 237 242 247 258 258 253 256 255 260 260 263 264 269 272 277 277 279 282 287 289 292 295 298 299 301 301 301 302 302 302 301 301 300 300 300 300 298 297 297 297 298 298 297
237 237 241 248 253 262 259 258 259 260 264 266 266 271 274 279 280 279 279 283 287 290 293 295 296 298 299 299 299 301 301 300 300 300 300 300 300 298 298 297 297 296 295 295
241 241 239 238 246 257 261 260 259 263 267 265 266 271 272 278 281 280 278 281 284 288 292 294 295 296 296 296 297 299 300 300 299 298 298 298 298 298 298 298 297 295 294 294
242 244 246 244 240 246 257 260 261 260 264 265 268 272 274 276 277 278 279 282 284 286 289 292 293 295 294 293 294 296 297 297 296 296 296 296 297 297 298 299 298 296 294 293
248 247 249 251 251 250 255 257 259 262 266 268 270 272 273 273 275 278 280 282 284 285 287 289 290 293 293 292 292 293 294 293 293 293 293 294 296 296 297 296 297 296 295 294
252 251 251 251 253 255 256 257 260 262 266 266 268 270 271 274 277 280 282 282 283 284 285 287 290 292 292 291 292 292 293 293 294 293 293 294 296 296 296 297 298 297 296 295
253 254 255 255 254 257 258 261 261 263 266 267 267 270 274 276 280 281 280 283 285 284 285 287 288 289 289 290 292 293 293 294 294 293 292 294 294 295 295 295 296 296 296 295
254 256 256 256 255 261 263 263 265 266 265 267 269 272 273 274 276 278 280 281 284 285 286 287 289 289 289 290 292 292 292 293 293 293 293 292 293 293 293 294 295 296 297 297
255 256 256 255 254 256 258 261 266 269 269 270 270 273 275 276 276 277 281 282 283 286 286 287 288 289 290 291 291 292 292 294 295 295 294 293 294 292 292 294 295 296 296 297
257 257 257 257 256 257 259 261 263 263 267 272 274 275 276 275 276 279 280 282 283 285 286 286 287 289 289 291 292 293 294 295 296 297 296 296 296 295 294 294 295 296 297 298
257 258 259 261 260 260 263 263 265 267 268 269 272 273 275 277 279 280 280 281 283 284 285 287 287 289 290 291 291 292 294 295 295 295 295 296 296 295 294 293 293 294 296 298
254 256 259 261 262 264 264 264 267 269 270 272 274 274 275 277 277 278 280 282 283 284 285 287 288 290 291 291 291 292 294 294 295 295 295 295 295 295 293 294 294 295 297 298
255 257 259 261 261 263 265 265 267 271 274 275 276 275 276 277 278 277 279 281 283 285 287 288 289 291 291 291 292 292 293 294 295 294 294 295 295 295 295 296 296 296 297 298
252 255 257 257 259 262 265 268 269 271 274 277 278 279 278 277 277 278 279 281 284 285 286 288 290 291 292 293 293 292 293 293 293 293 294 296 296 297 297 297 298 298 298 299
253 256 258 260 261 263 266 268 270 272 273 276 278 279 278 277 278 278 280 281 284 285 287 289 291 292 292 292 293 293 293 292 293 294 296 296 296 296 296 297 298 299 299 299
Height
5923 5925 5926 5927 5928 5928 5929 5929 5929 5929 5928 5927 5926 5924 5924 5922 5921 5920 5918 5916 5915 5914 5913 5912 5911 5910 5909 5909 5908 5907 5906 5905 5904 5904 5903 5902 5901 5900 5900 5900 5899 5898 5897 5897
5924 5925 5926 5927 5927 5928 5929 5929 5929 5929 5928 5927 5926 5925 5923 5922 5921 5920 5919 5917 5916 5914 5913 5912 5911 5910 5909 5908 5908 5907 5906 5905 5904 5903 5902 5901 5901 5900 5900 5899 5898 5898 5897 5896
5923 5925 5926 5927 5927 5927 5929 5929 5929 5928 5927 5926 5926 5925 5923 5922 5921 5921 5919 5918 5916 5914 5913 5912 5910 5910 5909 5908 5907 5906 5905 5904 5903 5903 5902 5901 5900 5899 5899 5898 5897 5897 5896 5895
5922 5923 5924 5926 5926 5927 5928 5928 5928 5928 5926 5926 5926 5924 5923 5921 5921 5920 5919 5918 5916 5915 5913 5911 5909 5908 5908 5907 5906 5905 5905 5904 5903 5902 5901 5900 5899 5898 5897 5897 5896 5895 5894 5893
5921 5923 5923 5924 5924 5925 5925 5926 5926 5926 5925 5925 5926 5924 5922 5921 5920 5919 5918 5917 5915 5914 5913 5911 5909 5908 5907 5906 5905 5904 5904 5903 5901 5900 5899 5899 5898 5896 5896 5895 5894 5893 5892 5891
5919 5920 5921 5921 5922 5923 5924 5924 5925 5925 5924 5925 5925 5925 5922 5920 5919 5919 5918 5917 5915 5913 5911 5910 5909 5907 5906 5905 5904 5903 5902 5901 5900 5899 5898 5897 5895 5894 5893 5892 5891 5890 5889 5888
5918 5919 5919 5920 5921 5922 5922 5924 5924 5924 5923 5923 5923 5922 5921 5919 5919 5918 5916 5914 5913 5912 5910 5909 5908 5906 5905 5904 5903 5902 5901 5900 5898 5897 5895 5894 5893 5892 5891 5889 5888 5887 5886 5885
5917 5918 5918 5918 5919 5919 5920 5922 5923 5923 5923 5922 5922 5919 5918 5918 5917 5916 5914 5913 5911 5910 5908 5907 5906 5905 5904 5903 5901 5900 5899 5897 5896 5894 5893 5892 5890 5889 5888 5886 5885 5884 5882 5881
5914 5916 5915 5915 5916 5917 5918 5919 5921 5920 5921 5921 5920 5917 5916 5915 5914 5913 5912 5911 5909 5908 5906 5905 5904 5902 5901 5900 5899 5898 5896 5894 5893 5891 5890 5888 5887 5886 5884 5883 5881 5880 5879 5877
5911 5911 5913 5913 5914 5915 5915 5916 5918 5918 5917 5918 5919 5917 5913 5913 5912 5911 5909 5907 5907 5905 5904 5902 5901 5900 5898 5897 5896 5894 5893 5891 5889 5888 5886 5885 5883 5882 5881 5879 5877 5876 5874 5873
5908 5909 5910 5912 5912 5913 5914 5914 5914 5914 5915 5916 5916 5915 5910 5909 5908 5908 5906 5904 5904 5902 5901 5899 5898 5897 5895 5894 5892 5891 5889 5888 5886 5884 5883 5881 5879 5877 5876 5874 5873 5871 5869 5867
5903 5905 5906 5908 5908 5909 5910 5910 5910 5912 5911 5911 5910 5910 5906 5905 5904 5903 5903 5901 5900 5899 5898 5896 5894 5893 5892 5890 5888 5886 5884 5883 5881 5880 5878 5876 5874 5873 5871 5869 5868 5866 5864 5862
5899 5901 5903 5905 5907 5905 5905 5906 5906 5907 5907 5908 5907 5907 5902 5900 5900 5899 5898 5897 5896 5895 5894 5892 5890 5889 5887 5886 5884 5882 5880 5878 5876 5875 5873 5871 5869 5867 5865 5864 5862 5860 5858 5856
5895 5896 5898 5900 5901 5901 5901 5901 5902 5902 5903 5904 5902 5901 5899 5897 5896 5894 5893 5892 5892 5891 5889 5888 5886 5884 5883 5881 5879 5877 5875 5873 5872 5870 5868 5866 5864 5862 5860 5858 5856 5854 5852 5850
5890 5891 5892 5893 5894 5896 5896 5897 5897 5898 5898 5898 5897 5896 5895 5893 5891 5889 5887 5887 5886 5885 5884 5883 5881 5879 5877 5876 5874 5872 5870 5869 5866 5864 5862 5860 5858 5856 5854 5851 5849 5847 5845 5843
5883 5885 5887 5888 5889 5890 5891 5893 5893 5893 5893 5893 5892 5890 5889 5887 5885 5883 5882 5882 5881 5880 5878 5877 5875 5874 5872 5870 5868 5866 5865 5863 5861 5859 5856 5854 5852 5850 5847 5845 5842 5840 5838 5835
5877 5879 5880 5882 5884 5884 5886 5887 5887 5887 5886 5886 5885 5884 5883 5880 5879 5877 5876 5875 5875 5874 5872 5871 5869 5868 5866 5864 5862 5860 5858 5856 5854 5852 5850 5848 5846 5843 5841 5838 5836 5833 5830 5828
5872 5873 5875 5876 5878 5878 5881 5880 5880 5880 5880 5879 5878 5877 5876 5875 5873 5871 5870 5869 5868 5867 5866 5865 5863 5861 5859 5857 5855 5853 5851 5849 5847 5845 5843 5841 5839 5836 5834 5831 5828 5826 5823 5820
5866 5867 5869 5870 5871 5872 5873 5872 5873 5873 5872 5872 5870 5869 5869 5868 5867 5865 5863 5862 5861 5860 5859 5857 5856 5854 5852 5850 5848 5846 5844 5842 5840 5838 5836 5834 5831 5829 5827 5824 5821 5818 5816 5813
5859 5861 5862 5863 5864 5866 5866 5866 5866 5867 5864 5864 5863 5862 5861 5860 5860 5859 5857 5856 5854 5853 5852 5850 5849 5847 5844 5842 5841 5839 5837 5835 5833 5831 5828 5826 5824 5821 5819 5816 5813 5811 5808 5805
5852 5853 5854 5855 5857 5857 5858 5858 5859 5860 5858 5857 5856 5855 5854 5853 5852 5851 5850 5848 5847 5846 5844 5843 5842 5840 5838 5836 5834 5831 5829 5827 5825 5823 5820 5818 5815 5813 5811 5808 5806 5803 5800 5797
5846 5847 5848 5849 5850 5852 5851 5851 5852 5851 5850 5849 5849 5848 5847 5846 5845 5844 5842 5840 5839 5838 5837 5835 5834 5832 5830 5828 5826 5824 5822 5820 5817 5815 5812 5810 5807 5805 5802 5800 5798 5795 5792 5790
5839 5841 5841 5842 5844 5843 5843 5843 5843 5842 5842 5842 5841 5841 5839 5839 5837 5836 5834 5833 5832 5831 5829 5828 5826 5824 5822 5820 5818 5816 5814 5811 5809 5807 5804 5802 5800 5797 5794 5792 5789 5787 5785 5782
5831 5833 5834 5834 5834 5835 5834 5834 5835 5836 5835 5834 5833 5832 5832 5831 5830 5828 5827 5825 5824 5823 5822 5820 5818 5817 5814 5812 5810 5808 5806 5803 5801 5799 5796 5794 5792 5789 5786 5783 5781 5779 5776 5773
5823 5824 5825 5825 5826 5827 5828 5827 5828 5828 5827 5826 5825 5824 5823 5823 5822 5821 5819 5818 5817 5816 5815 5812 5810 5809 5806 5804 5802 5800 5798 5795 5793 5791 5789 5786 5784 5781 5778 5775 5773 5770 5767 5764
5816 5817 5818 5818 5819 5820 5820 5820 5820 5820 5819 5818 5817 5817 5816 5815 5814 5813 5812 5810 5809 5808 5807 5805 5803 5801 5799 5796 5794 5792 5789 5787 5785 5782 5780 5778 5775 5772 5770 5767 5764 5761 5759 5756